Flag for U.S.A. Weather past 2 weeks in Flint, Michigan, U.S.A.

Now
25 °F

Overcast.


Feels Like: 16 °F
Forecast: 14 / 28 °F
Wind: 8 mph from West

Location: Bishop International Airport

Current Time: Mar 1, 2015 at 6:33:30 PM

Latest Report: Mar 1, 2015 at 5:53 PM


Visibility: 10 mi

Pressure: 30.24 "Hg

Humidity: 63%

Dew point: 14 °F

Location of FlintLocation

Historic Weather in Flint — Graph

°F

Flint temperature yesterday

Maximum temperature yesterday: 24 °F (at 2:53 PM)
Minimum temperature yesterday: -1 °F (at 6:53 AM)
Average temperature yesterday: 14 °F

Past Weeks' High & Low Weather Summary

 TemperatureHumidityPressure
High28 °F (Feb 21, 3:53 PM)85% (Feb 22, 5:53 AM)30.78 "Hg (Feb 22, 5:53 AM)
Low-23 °F (Feb 20, 3:53 AM)35% (Feb 24, 11:53 AM)29.64 "Hg (Feb 24, 8:53 PM)
Average8 °F61%30.25 "Hg
* Reported Feb 14 4:53 PM — Mar 1 4:53 PM, Flint, Weather by CustomWeather, © 2015

Note: Actual official high and low records may vary slightly from our data, if they occured in-between our weather recording intervals... More about our weather records

Advertising

Flint weather history for previous 24 hours

 ConditionsComfort  
Time TempWeatherWind HumidityBarometerVisibility
4:53 PM
Sun, Mar 1
26 °FOvercast.8 mph57%30.26 "Hg10 mi
3:53 PM25 °FPartly sunny.7 mph58%30.28 "Hg10 mi
2:53 PM26 °FPassing clouds.8 mph57%30.29 "Hg10 mi
1:53 PM24 °FSunny.8 mph62%30.31 "Hg10 mi
12:53 PM23 °FSunny.8 mph63%30.34 "Hg10 mi
11:53 AM22 °FSunny.5 mph66%30.36 "Hg10 mi
10:53 AM21 °FSunny.7 mph65%30.38 "Hg10 mi
9:53 AM19 °FSunny.6 mph71%30.40 "Hg10 mi
8:53 AM14 °FSunny.5 mph84%30.44 "Hg7 mi
7:53 AM8 °FIce fog.No wind83%30.44 "Hg4 mi
6:53 AM13 °FPassing clouds.3 mph81%30.45 "Hg7 mi
5:53 AM14 °FOvercast.No wind80%30.46 "Hg7 mi
4:53 AM15 °FLight snow. Overcast.No wind80%30.45 "Hg4 mi
3:53 AM15 °FLight snow. Overcast.3 mph80%30.46 "Hg3 mi
2:53 AM15 °FLight snow. Overcast.5 mph80%30.50 "Hg3 mi
1:53 AM16 °FLight snow. Overcast.3 mph74%30.53 "Hg2 mi
12:53 AM17 °FOvercast.6 mph51%30.54 "Hg10 mi
11:53 PM
Sat, Feb 28
17 °FOvercast.3 mph49%30.55 "Hg10 mi
10:53 PM17 °FOvercast.5 mph56%30.58 "Hg10 mi
9:53 PM17 °FClear.5 mph49%30.60 "Hg10 mi
8:53 PM17 °FClear.5 mph47%30.61 "Hg10 mi
7:53 PM17 °FClear.8 mph47%30.64 "Hg10 mi
6:53 PM19 °FClear.7 mph39%30.64 "Hg10 mi
Weather by CustomWeather, © 2015

See weather overviewHow to use our weather pages